Location: ??????
(56.0120°N, 39.1740°E)
Time: 08:13:38
(UTC+00:00)

Cosmos 1862 - Pass Details

Date: 14 April 2026
Orbit: 465 x 478 km, 82.5° (Epoch: 9 May)

Event Time Altitude Azimuth Distance (km) Brightness Sun altitude
Rises 20:21:04 0° 342° (NNW) 2,550 8.2 -23.1°
Reaches altitude 10° 20:23:16 10° 334° (NNW) 1,664 6.8 -23.2°
Enters shadow 20:26:23 36° 277° (W) 771 4.2 -23.3°
